This is the latest recevied weather packets stored in our database for station/object KR8N. If no packets are shown the sender has not sent any weather packets the latest 10 day(s).
| Time | Temp. | Humidity | Pressure | Rain* | Wind** | Luminosity | Snow |
|---|---|---|---|---|---|---|---|
| 1778038448 | 18.89° C | 45% | 1013.4 hPa | 0 mm | - | 0 W/m² | - |
| 1778038145 | 18.89° C | 44% | 1013.4 hPa | 0 mm | - | 0 W/m² | - |
| 1778037842 | 18.89° C | 45% | 1013.3 hPa | 0 mm | - | 0 W/m² | - |
| 1778037539 | 18.89° C | 44% | 1013.5 hPa | 0 mm | - | 0 W/m² | - |
| 1778037236 | 18.89° C | 45% | 1013.4 hPa | 0 mm | - | 0 W/m² | - |
| 1778036934 | 18.89° C | 47% | 1013.4 hPa | 0 mm | - | 0 W/m² | - |
| 1778036632 | 18.33° C | 45% | 1013.6 hPa | 0 mm | - | 0 W/m² | - |
| 1778036328 | 18.33° C | 47% | 1013.5 hPa | 0 mm | - | 0 W/m² | - |
| 1778036024 | 17.78° C | 50% | 1013.6 hPa | 0 mm | - | 0 W/m² | - |
| 1778035722 | 17.78° C | 48% | 1013.8 hPa | 0 mm | - | 0 W/m² | - |
| 1778035418 | 17.78° C | 48% | 1013.6 hPa | 0 mm | - | 0 W/m² | - |
| 1778035115 | 18.33° C | 47% | 1013.5 hPa | 0 mm | - | 0 W/m² | - |
| 1778034811 | 18.33° C | 46% | 1013.7 hPa | 0 mm | - | 0 W/m² | - |
| 1778034508 | 18.33° C | 45% | 1013.6 hPa | 0 mm | - | 0 W/m² | - |
| 1778034206 | 18.33° C | 46% | 1013.7 hPa | 0 mm | - | 0 W/m² | - |
| 1778033904 | 18.33° C | 47% | 1013.7 hPa | 0 mm | - | 0 W/m² | - |
| 1778033600 | 18.33° C | 47% | 1013.7 hPa | 0 mm | - | 0 W/m² | - |
| 1778033297 | 18.33° C | 45% | 1013.7 hPa | 0 mm | - | 0 W/m² | - |
| 1778032995 | 18.33° C | 46% | 1013.7 hPa | 0 mm | - | 0 W/m² | - |
| 1778032693 | 18.33° C | 46% | 1013.7 hPa | 0 mm | - | 0 W/m² | - |
| 1778032390 | 18.33° C | 46% | 1013.5 hPa | 0 mm | - | 0 W/m² | - |
| 1778032086 | 18.33° C | 46% | 1013.8 hPa | 0 mm | - | 0 W/m² | - |
| 1778031783 | 18.33° C | 46% | 1013.8 hPa | 0 mm | - | 0 W/m² | - |
| 1778031480 | 18.33° C | 46% | 1013.9 hPa | 0 mm | - | 0 W/m² | - |
| 1778031177 | 18.33° C | 46% | 1013.7 hPa | 0 mm | - | 0 W/m² | - |
* Rain latest hour (hover to see other rain measurements)
** Current wind speed in m/s (hover to see current wind gust speed)